STARLINK-4717, 53705

Orbit data source: Space-Track

STARLINK-4717, 53705 is a payload satellite owned by SpaceX/Seattle (US) in LEO that was launched on Mon, 05 Sep 2022 UTC via an FALCON 9 launch vehicle from the Air Force Eastern Test Range (AFETR). Payload-class satellites include a variety of spacecraft equipped with specific instruments for various scientific and technological missions. These include communications satellites like Starlink; space stations such as the ISS; scientific satellites like the Hubble; Earth observation satellites from companies like Planet Labs, Umbra, and HawkEye 360; GPS; miniature CubeSats for education and research; and military/defense satellites.

Loading next visibility...
Identifier
53705, 2022-107F
Orbit
LEO
Country
Flag of USUS
Related business
Manufacturer
SpaceX/Seattle
Mission
Operational Commercial Communications
Bus & Motor
STARLINK, Unknown motor
Mass
305 kg wet, ~290 kg dry
Launch date (UTC)
2022-09-05 (4 years ago)
Launch vehicle
FALCON 9
Launch site
Air Force Eastern Test Range (AFETR)
Object type
Payload
Rocket body
Debris
Shape & HBR
Box + 1 Pan, 10.1 m
Radar Cross Section
13.562 m², Large (>1 m²)

Expand to show TLE details & history
Last TLE update: 2 days ago

TLE from 2 days ago
0 STARLINK-4717
1 53705U 22107F   26171.31459628  .00002258  00000-0  15999-3 0  9990
2 53705  53.1593 143.5191 0001644  89.6580 270.4600 15.08827740210344
Epoch: 2026-06-20T07:33Z
TLE epoch observation values (Epoch: 2026-06-20T07:33:01.118Z)
Latitude
-0.00001°
Longitude
121.73344°
Altitude
540.663 km
Speed
7.593 km/s
True Right ascension
09h 34m 04s
True Declination
0° 00' 00"
Sunlit
Object was in daylight at epoch
Visualization orbit readout
Latitude
Unknown
Longitude
Unknown
Altitude
Unknown
Speed
Unknown
Apparent Right ascension
Unknown
Apparent Declination
Unknown
Sunlit
N/A
Visualization observer readout
Local Sidereal Time
21:23:26
Azimuth
Unknown
Elevation
Unknown
Doppler factor
Unknown
Orbital elements
Apogee altitude
541.172 km
Perigee altitude
538.898 km
Semi-major axis
6,918.172 km
Eccentricity
0.00016
Inclination
53.1593°
RAAN
143.5191°
Arg. of periapsis
89.658°
True anomaly
270.44116°
Mean anomaly
270.46°
Eccentric anomaly
270.45058°
Mean motion
3.77186 °/min
Orbital period
95.44 mins
BSTAR
0.00015999
Loading maneuver chart data...
Computing Atmospheric mass density...
Loading historical data...
Loading historical data...
Loading historical data...
Loading historical data...
Loading historical data...
Loading historical data...
Loading historical data...

Documentation

Showing up to 5 results
|